Find Starlink 5636

NORAD ID: 55454 Int'l Des: 2023-015 Owner: SPXS Country: US Constellation: starlink operational
LEOCIRCULAR

リアルタイム位置

3D地球を読み込み中...

Starlink 5636について

説明を読み込み中...

次回通過

Passes for default location (London). Set your location on the main map for personalized predictions.

高度履歴

Loading altitude history...

軌道要素

1 55454U 23015F 26124.39649810 -.00002105 00000-0 -68865-4 0 9996
2 55454 43.0029 13.9366 0001100 267.5899 92.4826 15.26720722179247
Epoch: May 4, 2026 • Age: 13 hours

現在のステータス

高度 489.1 km
速度 7.63 km/s
衛星直下点 41.12°N, 78.62°W
打ち上げ日 Feb 2, 2023
運用期間 3.2 years
タイプ internet

技術仕様

分類 Payload
質量 305.00 kg
乾燥質量 290.00 kg
総質量 305.00 kg
長さ 0.20 m
直径 2.80 m
スパン 9.00 m
形状 Box + pan
製造者 SPXS
バスタイプ Starlink
フェーズステータス In Orbit
所有者/国 SPXS/US

Most Searched